Theta_e
366 367 367 364 364 359 351 346 322 329 327 316 318 322 319 333 333 327 329 334 328 334 338 343 340 339 334 333 334 336 336 332 332 321 318 331 343 351 354 357 359 359 359 360 362 362 362 364 364 364 363 362 362 362 363 363 362 362 362 362 361 361 361 361 361 361 361 360 361 361 361 361 361 361 361 361 360 361 361 360 360 360 360 360 359 359 359 359 359 360 360 361 360 360 359 359 358
364 366 366 365 361 357 338 349 326 322 321 317 319 323 324 330 329 326 327 330 334 337 341 343 344 339 341 338 338 338 336 335 335 330 332 338 345 348 355 357 359 358 359 360 361 360 360 363 365 363 362 362 363 362 362 362 361 361 361 362 362 362 361 361 361 360 360 361 360 360 360 360 358 359 360 360 360 360 360 360 360 360 360 360 360 360 359 359 359 359 360 360 359 359 358 357 358
363 364 363 363 356 351 343 342 320 318 316 312 317 323 330 326 326 330 331 334 338 340 341 341 343 343 338 341 335 334 329 344 334 334 335 342 341 345 349 355 359 359 359 359 359 359 360 362 365 363 362 362 362 362 362 362 362 362 362 361 362 362 362 361 361 360 361 360 360 360 360 360 360 360 360 360 360 360 359 360 360 359 359 359 359 358 359 358 359 359 359 358 358 359 358 358 357
362 363 357 356 342 348 335 329 324 318 315 316 318 324 327 327 328 332 336 336 337 339 339 338 335 345 339 332 335 342 338 337 342 339 336 341 342 344 349 354 360 358 358 358 359 359 360 363 363 363 362 362 362 362 362 363 362 363 362 362 362 362 362 362 361 361 360 360 360 360 360 360 360 360 360 359 359 360 360 359 359 359 359 358 357 356 355 356 355 357 357 357 359 358 358 358 358
365 364 364 353 341 332 331 326 324 322 314 319 316 326 328 330 331 333 336 338 339 338 339 338 336 343 344 340 343 332 335 345 347 345 341 344 345 347 350 352 354 352 354 358 360 359 360 363 362 362 362 362 362 362 362 362 362 361 362 363 362 362 361 361 361 361 360 360 360 359 359 360 360 359 359 359 358 359 359 359 360 360 360 359 360 359 359 359 360 359 358 359 357 358 358 358 358
365 359 359 353 339 345 334 323 321 321 324 326 322 324 331 334 333 334 335 339 340 341 343 339 336 336 335 339 345 338 347 336 346 341 342 341 344 349 349 351 351 351 355 359 359 359 359 364 362 362 362 362 362 361 362 361 361 361 363 362 362 361 361 361 361 361 360 360 360 360 358 359 359 359 357 358 359 359 359 359 359 357 357 358 359 359 359 357 358 358 358 360 359 359 359 359 359
358 354 351 349 346 345 323 322 321 322 325 332 327 327 331 335 335 336 335 334 337 341 344 336 342 340 333 341 344 349 354 355 349 341 347 344 346 347 348 348 349 352 358 360 358 358 360 364 363 363 362 362 362 361 362 362 362 362 362 362 362 360 360 361 360 359 359 360 359 359 360 359 359 358 358 358 359 358 359 360 359 358 359 359 359 360 359 359 358 359 358 358 358 359 359 359 359
362 347 344 333 330 332 323 324 323 326 326 333 334 330 334 337 337 336 333 331 330 333 339 339 341 337 335 347 333 348 355 356 350 349 354 349 347 347 348 349 349 351 355 359 359 360 367 364 363 363 363 361 362 362 362 362 362 361 362 361 362 361 361 360 360 360 360 359 359 359 359 358 358 359 359 359 358 359 359 359 359 359 358 359 360 360 360 359 358 359 358 359 360 360 359 360 361
355 344 349 336 323 331 326 323 324 331 330 334 333 337 340 337 338 335 331 334 336 339 339 338 338 332 334 338 337 346 352 354 356 357 352 352 347 348 349 349 349 350 356 360 360 361 362 365 364 363 363 362 362 363 362 362 362 362 362 362 361 361 360 361 361 361 360 360 360 359 359 359 359 359 359 359 359 360 360 359 360 360 360 360 360 360 360 360 360 360 360 361 361 361 360 361 361
351 346 334 332 330 320 322 322 323 326 329 335 334 333 337 339 336 335 333 331 333 336 338 342 341 335 338 333 337 342 345 346 351 353 350 353 356 355 351 350 350 351 359 359 359 361 361 367 364 363 363 362 362 363 363 362 361 362 362 362 362 361 360 360 360 360 360 360 360 360 360 360 359 360 359 360 360 359 360 360 360 360 360 360 360 360 360 360 360 360 360 361 362 361 362 362 362
338 347 347 330 320 318 319 322 324 329 331 335 336 339 339 339 336 334 335 333 337 335 339 343 336 335 336 336 339 348 350 348 344 350 356 353 355 352 349 351 351 353 356 358 360 361 362 362 367 364 363 363 363 363 362 362 363 361 362 362 362 361 361 361 360 361 360 360 360 360 360 360 360 360 361 360 360 361 361 360 360 361 360 360 360 360 360 360 360 360 360 360 361 361 362 362 362
334 332 339 323 319 319 321 322 325 329 334 335 333 339 340 337 337 332 334 333 337 337 336 341 335 341 333 334 336 345 348 345 346 352 354 354 350 354 354 351 351 352 352 358 361 359 361 363 363 366 364 364 364 363 363 363 363 363 363 362 361 362 361 361 361 361 361 360 361 360 360 360 360 360 361 363 363 362 362 362 361 361 361 361 361 360 361 361 361 361 361 361 361 361 361 362 361
333 335 324 320 320 322 323 323 324 327 327 329 331 339 343 338 333 334 336 335 336 334 333 343 344 342 330 333 340 343 344 345 349 357 354 352 356 352 351 348 353 354 352 358 359 358 360 361 361 364 363 364 364 363 364 364 363 362 363 362 362 362 361 362 361 361 361 361 360 360 360 362 362 362 362 362 362 362 362 362 362 363 363 362 360 359 361 362 361 362 362 361 362 362 362 362 362
330 330 326 320 324 320 320 322 325 323 324 331 336 341 338 336 336 338 338 335 336 333 338 345 344 342 335 337 339 340 344 350 351 356 353 357 355 354 357 353 355 354 356 353 355 358 359 361 360 361 363 363 363 363 363 364 363 363 362 362 362 361 361 360 361 360 360 362 363 362 362 362 362 362 362 361 361 361 361 361 361 360 360 359 357 357 356 357 360 358 358 360 362 361 362 362 362
332 334 325 324 321 322 322 317 320 322 323 332 336 336 335 338 339 337 338 335 336 343 346 349 344 339 328 333 333 340 345 349 354 356 354 358 355 356 358 357 356 354 353 352 351 356 355 360 361 362 364 363 364 365 365 362 364 364 363 364 364 362 362 363 363 362 363 362 362 362 361 361 362 361 361 359 360 359 360 359 359 359 360 358 354 354 354 356 357 357 357 358 359 361 362 362 362
332 327 323 318 315 317 320 321 325 324 325 333 337 338 337 339 340 338 338 340 339 345 345 337 348 336 339 337 340 347 354 355 355 359 356 360 358 355 355 353 351 355 355 361 354 356 361 359 363 365 364 362 365 363 363 367 364 364 365 364 364 364 364 363 361 361 361 362 363 363 361 361 360 360 362 360 360 360 360 360 360 359 359 359 352 353 355 355 358 358 359 359 360 360 360 361 362
334 327 319 318 314 317 319 320 323 321 330 334 338 336 333 334 340 339 343 345 339 338 340 343 342 347 342 344 348 353 355 357 358 357 356 356 353 351 352 350 354 353 357 357 357 360 360 361 360 357 360 363 360 359 359 362 366 365 364 364 364 363 361 359 359 360 363 362 360 361 362 363 362 362 362 362 360 359 359 359 359 359 359 358 357 355 357 357 358 357 358 359 360 360 361 362 364
327 321 319 316 319 319 324 323 327 332 330 332 334 335 332 331 337 337 342 338 338 339 339 343 346 347 350 350 352 353 353 355 356 354 351 348 348 347 345 348 347 347 353 357 358 364 359 358 355 356 357 357 358 357 358 360 366 365 364 365 365 365 363 360 360 362 359 362 362 363 363 364 364 364 363 361 361 359 358 358 358 358 358 358 358 358 357 357 359 359 359 359 360 361 362 358 360
322 319 319 315 320 322 328 328 330 329 328 332 332 333 332 333 334 337 334 333 335 334 337 340 340 343 349 350 350 349 351 353 351 349 346 344 348 348 347 349 349 354 353 354 356 358 361 361 357 356 355 355 356 358 358 361 364 366 361 362 365 359 360 359 353 355 361 363 361 360 365 364 363 363 364 361 361 360 360 360 359 358 357 356 357 358 358 359 360 360 361 360 360 362 359 359 359
327 322 317 318 324 325 328 331 330 333 332 327 328 333 332 330 333 338 331 331 334 332 332 335 336 337 342 346 348 348 347 347 348 348 345 346 349 350 348 347 350 352 352 357 357 362 361 361 360 362 355 354 357 360 359 357 358 364 361 360 363 363 363 362 357 358 360 362 361 366 368 364 363 365 361 361 362 363 363 360 361 359 357 357 357 357 357 359 360 359 360 361 360 359 358 357 357
325 322 318 321 326 325 328 331 332 331 331 328 327 329 330 332 334 333 331 330 331 334 337 337 336 338 338 342 344 345 344 347 346 350 350 350 350 353 351 354 353 354 355 356 359 360 359 357 356 355 360 361 354 357 357 358 361 363 363 363 366 365 365 364 362 361 360 364 365 367 364 362 362 364 363 364 365 364 363 364 363 360 361 360 359 359 359 360 358 356 356 359 359 359 358 358 359
328 323 325 325 326 323 327 328 330 331 334 332 331 326 327 336 332 333 331 327 327 333 337 341 341 342 342 341 344 346 348 346 345 349 349 348 350 351 352 353 356 354 355 353 356 359 356 357 357 355 355 362 363 360 362 365 363 363 363 367 362 364 358 365 364 364 360 363 365 364 364 363 363 362 362 363 364 364 363 362 366 363 363 360 365 362 363 363 357 356 358 359 360 360 357 356 355
319 324 325 327 327 324 328 331 333 334 331 325 325 330 333 329 329 331 331 330 334 340 341 342 344 346 347 346 345 344 345 345 348 348 348 348 350 351 352 352 351 351 352 352 356 357 358 357 355 357 356 361 360 362 361 362 363 363 365 363 357 361 359 360 366 360 362 364 364 365 363 360 361 361 361 362 363 364 361 362 363 365 364 361 365 361 360 361 361 360 359 359 362 359 357 359 361
325 322 327 326 328 326 329 331 334 331 326 326 332 333 327 327 323 331 330 332 335 338 342 344 344 346 348 346 346 345 345 346 347 350 350 350 353 352 352 351 350 351 351 352 355 355 356 357 357 356 359 359 359 362 358 360 364 359 362 364 364 358 361 362 361 361 363 365 365 366 368 361 358 358 361 363 359 357 356 356 357 357 359 360 361 363 357 358 360 361 359 361 357 357 352 352 353
324 323 326 326 328 328 330 330 332 332 334 334 334 326 328 326 327 329 329 332 335 339 343 344 345 345 345 344 345 346 346 347 347 349 352 352 354 355 353 349 351 351 350 352 354 354 357 356 357 355 356 359 359 362 357 360 358 359 362 364 359 360 363 361 359 362 364 362 367 365 365 364 362 361 355 353 356 354 356 354 355 353 352 355 355 353 354 352 352 351 352 352 352 352 350 349 351
326 325 327 327 327 329 330 329 329 330 333 338 330 326 326 327 331 328 331 333 335 336 340 340 341 339 342 343 345 345 345 346 347 347 349 351 351 349 350 348 348 349 350 353 355 356 357 357 355 355 357 358 357 357 353 362 360 359 357 359 363 365 362 357 360 364 364 361 360 365 366 365 359 354 354 355 352 353 353 354 353 354 352 352 349 349 352 351 350 351 353 352 350 351 349 349 350
330 328 327 326 327 328 330 329 330 331 329 332 329 329 326 329 330 321 333 335 336 336 334 336 337 337 339 339 344 342 345 346 347 348 348 348 349 350 348 349 351 352 352 352 354 357 359 359 356 356 358 361 359 359 356 358 361 359 359 361 362 362 362 362 364 364 357 358 360 361 361 360 360 358 355 354 355 355 357 355 355 353 353 347 346 347 352 353 352 352 355 352 351 350 349 350 350
328 327 326 325 327 329 328 328 329 330 329 331 332 329 330 329 328 323 330 335 336 333 333 335 335 335 337 340 342 347 345 347 347 347 347 345 347 346 346 350 352 353 351 352 355 358 356 358 359 359 358 360 360 361 358 359 358 357 359 363 360 358 359 364 361 363 356 355 359 358 360 359 359 358 356 353 353 353 354 354 355 352 346 346 347 350 352 351 349 350 355 357 354 352 350 348 348
326 326 322 322 324 324 326 326 327 331 328 334 333 328 326 328 323 328 331 334 334 333 332 336 334 335 337 337 340 343 343 344 345 345 348 346 349 350 349 352 353 352 353 354 356 357 356 356 358 360 360 358 358 359 362 359 359 358 363 362 362 361 359 361 361 357 355 355 358 358 358 359 359 356 357 353 353 350 351 353 346 348 344 346 349 354 349 349 348 350 350 350 347 345 343 343 346
326 326 324 320 321 319 325 327 329 329 332 334 332 318 320 325 330 329 331 332 332 331 331 333 333 335 334 337 337 338 341 341 342 343 347 349 350 351 351 353 355 354 354 356 357 356 356 357 358 357 359 358 358 361 362 359 362 361 364 357 362 360 356 360 356 355 357 357 356 358 357 357 357 357 355 353 353 348 348 348 347 346 344 348 350 349 347 347 348 348 347 345 345 344 343 343 340
319 326 325 319 317 316 323 324 327 325 333 331 331 318 319 324 326 328 330 333 331 328 329 332 332 333 333 335 335 337 339 341 340 343 348 347 351 352 352 353 354 354 353 355 356 355 357 357 356 355 355 357 358 360 360 359 361 360 360 360 363 358 356 358 349 351 354 356 356 354 356 356 356 355 355 353 352 347 345 345 346 344 345 349 346 347 347 347 346 345 344 343 344 342 341 342 340
323 319 317 319 315 317 322 326 326 321 328 332 328 318 319 323 326 329 332 337 332 328 329 330 330 331 332 334 334 336 335 340 341 343 346 347 350 351 352 353 354 354 355 356 355 356 355 356 357 356 356 355 357 359 361 362 364 366 364 356 359 359 355 352 352 352 355 358 355 353 355 355 355 354 352 351 351 346 343 345 344 346 345 347 348 347 347 343 344 343 344 344 341 341 341 339 340
320 317 316 313 315 315 317 323 325 327 326 328 326 318 322 321 327 328 331 331 330 329 328 329 329 331 331 334 335 335 334 338 342 344 348 347 348 348 352 354 355 356 355 356 355 355 355 355 356 355 355 357 357 358 361 360 363 363 358 355 355 357 353 351 351 354 354 353 352 351 354 355 354 351 351 349 349 344 343 344 343 346 344 344 348 345 345 343 343 342 343 345 344 341 340 336 337
313 316 314 314 313 314 313 321 323 326 326 322 326 321 320 323 326 328 329 330 329 329 327 329 329 330 332 334 333 333 335 337 338 343 344 346 348 349 351 355 355 355 356 355 356 355 354 354 356 358 358 357 358 358 359 362 362 360 354 354 358 352 353 352 353 353 352 350 350 351 353 351 351 349 349 348 347 344 344 344 342 345 341 344 344 343 343 343 343 343 341 344 343 341 339 336 336
311 313 311 311 315 316 314 315 320 324 324 321 321 321 319 324 326 327 327 330 329 332 333 332 329 330 332 331 334 334 333 334 338 343 341 345 349 350 351 354 353 355 355 355 355 355 356 356 356 358 354 357 357 358 358 358 356 357 354 354 354 354 354 353 355 349 350 350 348 351 352 351 349 348 346 347 344 341 341 341 341 344 341 344 340 340 340 340 341 342 340 341 343 342 339 339 338
315 314 312 313 311 312 314 317 322 322 320 319 320 318 319 324 325 327 328 329 329 332 334 330 331 330 331 332 332 335 336 336 340 341 340 343 346 349 350 352 353 354 354 355 355 355 356 355 356 356 356 357 357 356 354 350 351 353 349 352 350 351 351 349 349 347 348 347 348 350 348 348 349 347 347 347 343 342 339 338 338 338 338 340 338 337 337 336 337 339 340 339 338 338 340 340 341
317 316 316 312 312 313 317 318 322 323 318 317 320 321 321 321 325 327 329 329 330 330 331 334 331 333 331 332 333 335 336 337 341 338 341 343 346 347 351 351 352 353 354 353 353 354 355 354 355 354 356 355 354 355 356 351 348 351 350 345 349 346 349 351 347 347 345 346 349 348 346 343 346 344 345 344 342 339 338 337 337 336 337 337 337 336 337 338 337 341 340 340 336 336 335 338 341
317 315 314 312 314 310 315 315 319 321 317 316 323 320 321 325 325 328 330 328 326 330 330 332 332 331 332 333 333 335 336 340 341 339 342 347 347 348 350 350 353 350 351 352 351 353 354 355 355 356 359 356 357 358 354 355 354 349 348 347 350 342 345 344 340 342 345 345 348 346 344 343 343 342 342 341 340 337 335 334 334 334 334 333 336 336 338 339 338 338 339 335 337 335 335 337 340
316 314 313 312 313 315 316 317 319 320 317 317 324 321 322 325 326 329 328 327 328 333 332 332 333 332 333 332 333 336 336 339 340 341 344 348 350 350 350 350 351 351 351 351 353 353 354 355 357 355 356 356 356 356 355 354 353 354 350 348 345 341 341 343 342 343 347 345 343 343 344 343 342 339 338 338 334 333 335 334 332 333 334 333 333 332 334 334 334 336 335 334 332 335 335 338 338
314 314 312 310 314 311 308 317 317 319 317 316 318 319 321 326 329 327 329 329 331 335 334 337 337 336 335 332 334 335 335 339 340 338 343 346 348 349 350 350 350 349 349 350 352 352 354 354 353 356 355 355 355 355 355 353 354 354 353 351 348 344 344 346 346 347 344 343 341 342 342 341 341 337 334 334 333 334 334 333 332 332 332 333 332 331 333 328 331 337 333 335 335 330 331 332 338
314 314 312 312 312 313 312 312 316 317 321 320 318 317 317 321 322 323 328 332 333 334 336 337 337 337 338 337 336 338 337 339 335 339 340 346 347 348 349 350 349 348 347 349 350 351 353 353 354 354 354 353 354 355 353 354 354 352 353 351 350 350 347 344 341 338 340 341 339 340 341 342 341 338 335 332 333 334 334 333 332 332 331 331 331 330 330 327 328 332 332 334 334 331 330 331 335
312 315 315 314 315 314 314 315 314 311 315 316 315 307 309 316 319 319 322 327 331 333 333 333 336 336 337 335 336 338 342 339 338 339 339 342 347 348 351 349 348 347 347 350 351 351 351 352 354 354 354 353 351 352 352 353 352 351 358 349 343 342 339 338 337 337 335 340 339 342 343 341 339 339 339 336 333 334 334 331 333 332 329 331 329 328 332 330 330 330 331 333 332 334 333 331 329
309 311 317 316 315 314 314 313 312 306 305 318 318 306 304 317 314 318 324 327 324 330 331 333 336 337 335 335 336 337 337 337 338 339 340 342 346 349 350 349 347 347 349 349 349 350 351 353 353 354 353 353 351 351 353 354 351 349 343 338 338 339 336 338 346 343 340 344 342 340 342 341 343 338 337 337 333 333 335 333 333 329 327 327 330 330 328 325 327 328 333 332 332 335 336 329 327
308 315 316 316 314 313 312 312 311 309 314 318 317 313 310 310 319 317 321 323 323 325 327 332 334 338 335 335 336 338 334 338 337 337 340 342 344 348 347 347 348 347 348 349 349 350 352 352 351 352 352 351 351 352 351 352 347 344 342 341 341 337 336 341 340 342 342 342 340 337 340 338 340 337 335 336 331 329 333 331 331 329 327 327 329 327 327 327 328 331 335 335 334 334 332 329 328
311 316 317 314 315 314 314 312 311 311 309 306 313 316 311 309 316 321 323 320 321 322 325 328 335 337 336 335 334 332 337 337 337 337 338 341 342 344 345 345 347 347 347 347 349 350 350 351 351 352 351 351 351 350 347 345 347 346 344 341 339 340 339 339 338 337 338 338 336 336 336 335 334 336 332 329 330 329 330 328 329 329 327 329 330 329 327 326 328 331 333 331 329 329 329 331 330
315 317 317 316 315 314 313 310 309 310 307 303 309 313 304 307 314 317 321 320 320 322 326 329 333 335 336 335 336 333 336 337 338 338 340 341 341 343 345 346 346 346 348 348 349 349 349 350 350 349 348 349 348 346 344 345 346 346 344 342 340 341 340 342 338 338 339 338 336 335 335 336 329 327 328 329 329 327 328 327 326 326 327 327 329 327 327 329 331 332 331 329 330 329 328 325 328
317 315 313 312 313 312 312 312 311 309 303 306 310 312 310 303 314 314 318 316 319 324 326 328 333 333 336 335 336 334 338 337 337 339 340 340 341 343 346 344 345 346 347 348 347 348 349 348 348 346 347 347 344 343 344 344 344 343 342 339 338 337 336 336 334 337 338 337 334 329 330 332 329 326 326 327 325 324 325 328 325 325 327 330 332 330 329 329 329 329 328 331 330 327 326 325 327
315 312 310 309 308 311 309 309 311 302 300 307 311 311 312 302 312 317 319 323 322 320 321 330 332 332 335 334 335 337 338 338 338 339 340 341 342 344 344 343 344 345 346 346 346 346 346 346 346 344 343 343 344 344 344 342 341 341 339 338 337 338 337 333 333 331 332 332 330 331 333 333 327 325 327 325 321 322 328 328 327 327 329 329 331 333 333 332 329 329 328 328 330 327 328 325 325
313 311 310 304 302 304 300 304 300 301 300 309 313 312 307 310 313 318 320 320 321 325 326 327 331 336 337 335 337 339 339 339 339 340 341 342 342 342 341 343 344 344 344 344 344 343 344 343 342 339 340 343 344 343 341 341 341 340 341 338 337 338 337 334 332 330 329 329 329 328 328 329 327 326 322 320 319 322 327 328 326 328 328 331 335 333 333 332 332 329 327 325 325 326 325 324 324
310 308 307 303 299 298 296 299 302 302 306 311 310 314 306 311 316 320 319 323 325 329 329 329 334 337 338 336 337 340 340 341 341 341 342 342 343 343 343 343 343 343 343 343 343 343 342 340 339 338 339 342 341 340 340 338 338 338 338 337 337 336 333 331 329 328 327 330 330 327 325 324 325 320 319 321 322 322 323 324 327 328 333 333 334 333 332 331 331 329 328 326 323 324 324 323 324
308 312 308 305 304 299 296 299 296 299 302 306 310 306 304 304 317 323 325 330 332 332 332 333 338 341 341 338 342 341 340 343 342 342 342 343 343 342 343 342 342 342 342 341 342 341 340 337 337 338 338 338 338 338 339 336 335 334 334 336 336 335 333 330 331 332 329 325 326 323 326 322 319 322 325 327 328 327 324 328 328 330 331 333 331 329 326 327 328 330 327 324 325 320 323 322 319
310 311 312 306 304 308 300 302 301 302 302 302 306 305 312 313 324 327 329 329 330 333 333 333 335 338 340 343 343 341 341 342 342 340 342 342 342 342 341 341 341 341 341 340 339 339 336 337 337 338 338 338 338 337 336 336 335 337 336 336 335 335 336 331 333 332 330 328 326 324 323 324 321 320 327 329 324 324 323 327 327 328 330 328 327 327 325 326 327 330 326 322 321 321 320 318 318
308 308 303 306 313 310 305 305 306 306 303 300 306 306 315 319 319 319 329 329 331 334 333 334 334 336 340 341 342 341 341 342 342 341 340 341 341 341 341 340 340 339 338 338 338 337 336 336 335 337 337 337 336 336 335 334 333 332 332 333 332 329 325 324 323 324 323 324 326 322 320 320 320 323 323 325 328 329 327 327 325 322 325 326 326 326 324 325 326 327 326 321 319 319 321 318 318
309 303 307 312 314 311 306 299 303 302 298 301 305 303 308 310 307 323 325 329 332 332 334 334 338 339 338 342 342 342 342 343 341 343 342 340 339 339 340 339 339 338 338 338 338 337 337 336 336 335 336 334 334 334 334 334 333 331 331 328 327 327 322 321 324 323 323 323 324 322 323 322 320 321 323 323 325 324 332 327 325 324 323 325 325 323 323 324 324 322 323 320 319 323 321 320 320
309 307 314 305 301 300 306 303 296 296 296 299 303 305 308 311 312 321 323 326 329 333 335 336 335 336 339 342 343 343 343 342 342 341 340 338 338 338 338 338 338 338 337 337 338 337 336 335 335 335 334 334 334 333 333 332 330 327 327 326 325 326 326 326 326 325 324 321 319 320 319 323 323 326 325 325 323 321 322 323 325 323 325 323 323 324 325 324 323 321 320 317 319 321 321 319 320
314 314 309 312 307 303 301 303 305 305 298 298 300 303 301 314 313 320 320 328 330 333 334 334 335 337 339 343 342 342 342 341 341 338 337 338 338 338 338 337 337 336 336 336 336 335 334 335 334 334 335 334 333 331 330 329 328 328 326 328 329 330 330 326 322 321 319 320 320 321 321 318 321 323 321 321 321 323 322 321 320 319 319 319 320 321 323 324 322 322 320 316 317 321 319 318 317
307 307 306 307 307 310 308 308 305 302 301 300 300 298 311 321 326 319 324 330 331 333 334 335 336 337 343 343 343 343 342 340 338 337 337 337 336 337 338 337 337 337 337 336 335 334 335 334 332 331 332 331 329 328 327 327 328 326 327 325 326 327 325 326 320 318 318 319 321 322 319 320 324 325 321 321 322 323 323 321 321 321 319 321 324 323 322 325 323 321 323 321 321 322 320 317 319
309 308 306 307 305 303 299 299 308 305 301 299 299 299 315 324 329 327 330 333 335 336 335 335 336 338 341 343 344 343 341 339 338 338 337 336 336 337 336 336 337 336 335 335 335 335 335 333 330 330 331 330 328 326 327 329 325 324 323 322 323 325 325 324 323 325 318 318 318 319 321 322 319 323 324 320 322 321 322 321 320 320 322 320 323 324 320 322 320 322 319 317 316 320 320 320 321
Wind_Speed
9 8 8 8 6 4 5 3 1 2 2 2 2 2 2 2 6 6 6 4 4 4 2 5 8 11 12 11 18 14 13 9 8 4 6 7 11 18 17 17 16 15 15 13 12 11 12 14 14 14 14 13 13 13 13 12 12 11 11 10 11 10 10 10 9 9 9 9 9 9 9 9 9 9 9 9 8 8 8 7 7 6 6 5 4 5 4 3 4 4 4 4 3 3 2 2 2
8 9 7 7 5 4 2 3 0 3 1 5 2 1 5 4 5 7 6 5 6 3 5 7 9 10 10 11 10 13 15 14 13 13 11 12 17 16 17 17 16 16 14 12 12 11 11 12 13 14 14 14 14 13 13 12 11 11 11 10 10 10 10 10 9 9 8 9 8 8 9 8 8 7 7 7 8 7 7 7 6 6 6 5 5 4 3 3 3 3 2 2 2 2 1 1 1
9 8 6 5 1 1 1 2 1 0 2 6 2 2 2 2 7 5 8 7 8 7 6 8 10 10 9 11 16 13 7 7 14 14 10 15 16 12 16 16 15 15 15 12 12 12 10 11 13 14 14 14 14 14 13 12 12 11 10 10 10 10 10 9 9 9 9 9 8 8 9 8 8 8 7 7 7 6 6 6 6 5 4 5 4 3 4 2 2 2 2 2 1 2 1 0 0
5 6 5 5 1 3 0 1 2 2 5 5 4 2 4 4 9 8 7 7 6 4 5 7 7 6 9 14 10 11 8 6 6 7 10 10 9 14 15 16 15 13 12 11 12 11 10 13 15 15 14 14 14 14 13 13 13 12 11 10 10 10 10 9 9 9 8 8 8 8 8 7 7 7 6 6 6 6 6 5 5 5 4 3 4 3 2 3 2 3 2 1 2 1 1 2 2
7 3 3 3 2 1 1 2 4 2 4 3 3 6 5 7 10 9 8 6 5 6 6 4 5 6 9 9 5 5 5 3 6 4 10 11 13 14 15 15 14 13 13 14 12 12 12 17 15 14 14 14 14 13 13 13 13 12 11 10 10 9 9 9 8 9 8 8 8 7 7 7 7 6 5 5 5 5 4 4 4 4 4 4 3 4 3 3 3 3 4 3 2 3 3 4 4
8 5 10 6 2 4 3 1 7 8 3 2 6 7 8 8 9 10 10 8 9 7 5 5 4 4 6 6 5 4 4 2 3 2 11 12 15 15 15 12 12 13 13 13 12 10 12 17 15 15 14 13 13 13 13 12 12 12 11 10 9 9 8 8 8 7 7 7 7 6 6 5 5 5 5 5 3 4 3 3 3 3 3 3 4 3 4 3 4 4 3 5 4 4 6 6 6
6 6 4 3 5 2 4 7 8 9 8 8 7 8 7 8 9 11 12 8 7 5 7 8 10 11 9 4 8 5 5 4 4 7 6 13 15 14 13 11 13 15 15 12 11 11 14 16 15 15 13 13 12 12 12 11 11 11 10 10 9 9 8 7 7 6 6 6 5 5 5 4 4 3 3 3 3 2 3 3 4 4 5 5 5 6 5 6 5 5 6 6 5 7 7 7 7
5 3 4 3 1 2 5 9 8 7 8 10 9 10 10 9 9 9 11 6 1 3 2 2 7 11 7 3 5 5 6 5 3 7 7 11 14 12 11 11 13 13 14 13 12 11 15 16 15 14 13 12 12 11 11 11 11 10 10 9 9 8 8 7 6 6 5 4 4 4 4 3 3 4 3 4 4 4 4 4 4 5 5 6 6 6 7 7 7 7 7 7 8 8 8 9 9
7 7 3 3 3 4 4 9 8 7 9 8 11 13 8 10 9 12 12 4 3 4 5 4 0 3 6 11 7 3 5 14 4 7 10 11 13 12 9 12 12 12 14 13 13 13 12 15 15 14 13 12 12 11 11 10 10 9 9 9 8 8 7 6 6 5 5 4 4 2 3 3 3 3 4 4 5 5 5 6 6 6 7 7 8 8 8 8 8 8 9 9 10 10 10 10 11
8 7 5 4 8 7 6 9 7 7 9 9 10 11 9 8 10 14 10 5 5 3 3 4 8 12 10 12 8 2 2 5 17 6 9 8 8 9 10 10 11 14 14 13 12 12 10 15 15 14 13 12 11 11 10 10 9 8 8 7 7 6 5 5 4 4 4 4 3 3 4 3 3 4 5 5 6 7 7 8 8 8 8 9 9 9 9 10 9 10 10 10 10 11 11 11 12
7 8 5 6 6 8 9 7 9 8 9 8 10 11 10 10 14 10 8 7 5 3 2 6 10 10 8 7 3 2 3 4 12 2 6 7 7 9 10 9 10 13 13 14 13 12 11 11 15 14 13 12 12 11 10 9 8 8 7 7 6 6 5 4 4 4 3 3 3 3 3 3 4 4 6 6 7 8 9 9 9 9 10 11 11 11 11 11 11 12 11 11 11 11 12 12 12
7 6 8 2 7 8 7 7 8 8 9 8 8 9 7 11 12 8 8 8 5 6 4 2 6 9 8 7 5 2 1 1 5 9 4 6 7 7 8 9 9 10 12 15 14 12 12 11 10 12 12 12 11 10 10 9 8 7 7 6 5 5 3 3 3 2 2 2 2 2 2 3 4 4 2 2 2 2 4 6 8 9 10 11 12 12 12 12 12 12 12 12 12 13 13 13 13
9 9 6 6 7 6 8 8 7 8 8 9 8 7 10 10 8 8 8 8 6 8 5 2 8 3 7 5 2 1 1 5 4 7 5 5 5 7 7 8 7 7 10 16 13 13 13 11 10 9 9 12 10 10 9 9 8 7 7 5 5 3 3 3 2 2 2 2 3 2 3 1 1 3 4 4 4 5 6 7 8 9 9 11 11 12 12 12 11 11 12 12 12 12 13 13 14
3 5 4 5 7 9 7 8 5 7 8 7 6 5 11 9 10 7 8 9 6 6 6 7 3 9 11 9 4 1 2 6 6 7 6 5 6 5 7 5 2 6 13 10 10 12 11 11 10 10 10 8 8 8 9 9 7 7 6 6 5 4 3 1 2 1 1 1 1 1 1 3 4 5 6 7 8 7 7 7 9 11 12 12 12 12 11 9 11 12 12 13 13 14 14 14 14
10 5 4 6 6 6 8 8 9 9 7 5 4 6 10 8 14 7 10 10 6 6 6 5 5 5 6 7 6 6 7 8 9 8 7 6 3 6 5 5 6 4 10 8 9 10 9 10 9 9 8 7 7 4 5 6 8 7 7 5 4 4 3 3 1 1 1 2 3 3 3 4 6 7 7 7 8 9 9 11 12 12 13 10 12 12 11 17 13 9 12 14 15 14 15 15 15
5 5 6 8 9 9 9 8 9 9 7 6 6 8 10 11 7 7 10 9 8 7 6 5 2 1 10 5 8 9 10 8 8 6 5 10 6 6 4 2 2 11 11 6 1 10 5 10 6 5 5 5 3 3 4 1 4 6 6 5 5 4 4 2 2 3 4 5 5 5 5 5 6 5 7 7 7 9 10 9 10 12 13 9 7 16 15 15 14 12 14 15 16 16 15 16 17
4 8 7 7 10 10 9 10 8 8 7 6 5 6 8 9 11 11 14 11 10 8 6 6 5 6 6 8 11 11 10 9 9 8 5 5 5 4 3 1 5 11 8 9 8 7 6 4 9 7 3 3 5 3 2 1 4 6 5 6 6 5 3 3 2 5 7 5 3 5 5 3 3 3 3 3 5 5 7 8 7 9 10 10 8 11 13 13 15 14 15 15 17 17 16 17 17
10 8 8 9 9 10 9 11 8 8 8 7 8 7 10 10 8 11 11 11 11 11 10 9 9 9 10 11 11 12 12 9 8 8 6 5 3 3 3 5 6 3 2 4 6 6 9 6 12 7 1 2 5 1 2 3 2 5 4 3 5 5 5 3 3 4 4 2 3 3 2 0 1 2 3 3 3 4 5 7 7 8 9 10 10 8 7 11 12 13 15 16 16 16 17 9 8
8 9 8 9 9 10 10 10 9 7 9 9 9 11 12 11 9 6 7 11 11 12 11 11 12 11 12 11 11 11 11 10 9 11 13 5 3 7 4 2 3 1 1 2 4 6 6 6 13 8 4 3 1 5 2 2 2 1 2 3 2 3 2 7 6 7 4 0 1 2 2 2 2 2 2 3 3 6 6 8 7 7 6 6 7 9 9 9 10 11 12 13 15 16 10 6 6
8 9 8 9 10 12 12 10 10 8 8 11 10 9 10 11 11 7 9 9 10 11 10 11 11 12 11 12 11 11 12 11 8 12 8 7 5 6 5 3 4 4 2 1 3 5 7 6 7 9 12 6 1 4 2 1 1 3 3 3 1 4 3 3 4 5 1 3 2 1 1 2 2 2 3 5 5 4 4 5 8 6 6 4 6 5 6 8 11 12 12 13 9 6 4 5 5
8 9 9 9 9 9 10 9 9 9 9 10 10 10 10 10 10 9 10 8 8 9 10 11 12 12 13 11 11 10 10 10 9 5 10 7 6 4 5 3 3 3 4 1 2 5 6 7 4 3 1 8 9 2 4 3 3 1 0 1 1 1 3 2 3 4 2 2 2 1 1 0 2 1 2 2 2 3 2 2 1 3 3 3 5 3 3 1 2 3 4 5 4 5 4 5 5
8 11 11 10 10 11 11 12 13 10 6 9 8 10 9 6 9 6 8 8 6 7 10 11 11 12 12 11 10 8 8 10 10 7 8 6 6 5 5 4 4 4 3 3 2 4 6 5 3 1 3 2 5 6 2 3 1 2 1 1 2 2 3 1 2 1 2 2 2 3 3 3 3 3 2 2 3 2 3 3 1 2 2 2 1 2 2 2 3 4 6 5 4 4 5 5 5
9 9 11 11 10 11 8 10 5 3 4 10 10 7 7 9 10 12 13 12 10 10 11 10 10 10 10 9 10 9 9 7 10 8 10 7 8 7 7 6 5 4 4 3 3 4 4 6 3 1 0 3 5 4 3 1 1 3 1 2 2 1 2 1 2 2 2 2 2 2 2 3 3 3 3 3 2 2 1 2 2 2 2 1 1 2 2 2 2 2 3 2 2 3 4 3 4
8 9 9 12 12 11 9 6 7 10 12 8 3 5 9 7 12 12 15 14 13 13 10 10 11 10 9 10 10 9 9 10 10 8 10 10 8 9 8 7 5 4 4 4 3 4 3 2 4 4 1 3 2 3 4 2 3 5 2 1 2 2 0 2 2 2 2 2 3 3 4 3 3 4 2 1 3 3 4 4 4 4 3 3 2 2 3 2 2 3 3 2 3 3 5 4 3
10 9 8 9 9 10 9 8 8 7 7 5 6 7 3 12 9 12 15 15 14 12 10 9 9 7 7 7 8 9 9 5 9 10 8 9 8 9 8 6 6 6 6 5 4 3 5 3 3 4 2 4 4 4 5 3 3 2 1 0 3 2 1 1 2 1 1 1 3 3 4 3 3 3 4 5 4 4 4 5 5 5 6 5 6 6 5 6 6 6 6 6 5 6 6 5 4
9 9 8 9 9 8 9 9 7 7 6 3 6 7 4 8 11 13 15 15 15 13 12 11 10 9 7 6 6 6 8 8 7 9 8 7 8 9 11 8 8 7 8 6 7 6 6 6 5 3 2 1 7 5 2 1 3 3 2 2 1 1 1 2 2 1 1 3 4 3 2 2 4 6 5 5 6 5 5 5 5 5 5 6 7 7 5 5 5 5 4 5 5 5 5 6 5
7 9 9 9 8 7 4 9 8 8 5 2 6 2 5 3 4 10 14 16 15 13 11 10 10 7 8 8 5 6 6 6 7 7 8 8 7 6 10 10 9 10 9 8 7 6 6 5 6 4 2 1 6 5 3 3 3 4 3 3 2 3 2 2 2 1 4 4 3 5 5 5 5 5 5 5 4 4 3 3 3 4 4 7 7 6 5 4 5 5 4 4 4 5 5 5 5
8 8 8 8 7 7 5 7 7 5 5 5 4 4 5 5 5 10 14 15 14 13 11 11 9 9 8 7 6 5 5 5 5 5 7 7 5 7 9 8 8 10 8 7 7 7 6 7 6 5 4 1 5 5 5 3 5 5 4 2 5 4 1 1 1 1 5 4 5 5 5 5 5 5 5 5 5 5 4 4 4 5 7 7 6 5 6 6 6 6 5 3 4 5 5 5 6
8 5 8 5 6 8 5 6 7 1 6 1 5 5 3 1 3 16 14 13 13 14 11 9 8 8 7 7 8 7 6 7 7 6 6 7 6 6 8 10 8 8 7 8 8 8 8 7 6 5 5 6 4 5 2 4 4 4 4 3 2 3 3 3 2 4 5 5 4 5 6 6 5 6 6 7 7 6 6 5 7 6 7 7 6 6 8 7 6 5 5 6 6 7 7 6 6
4 3 3 5 2 5 7 3 8 5 7 7 5 4 5 5 6 13 13 12 12 14 11 8 8 7 6 7 6 7 8 8 8 6 7 6 7 7 7 8 10 8 8 7 8 8 7 5 6 5 5 6 6 3 3 4 4 3 3 2 3 4 2 0 4 5 4 4 5 5 5 6 6 6 6 6 6 6 6 6 6 6 7 7 5 6 7 7 5 5 6 6 6 5 6 6 6
4 17 11 0 5 5 5 6 10 7 10 10 7 2 7 6 8 12 12 12 11 11 10 9 8 7 7 8 7 7 7 8 9 9 9 9 8 7 7 7 8 8 7 8 8 7 6 7 6 6 6 8 6 3 3 5 4 3 3 0 1 4 5 2 6 6 5 4 4 5 6 6 6 6 6 6 6 6 7 6 6 7 7 6 6 6 7 6 5 6 6 7 6 6 6 7 7
3 7 5 10 6 3 3 9 11 6 10 11 8 3 3 10 9 12 9 7 9 9 10 10 9 8 8 8 8 9 9 7 7 8 9 8 8 8 8 7 7 8 8 8 7 7 7 6 7 9 8 8 6 3 3 3 2 2 1 3 3 4 4 6 7 6 3 3 4 5 6 5 6 6 6 7 6 6 6 5 6 6 8 6 5 6 7 6 6 7 6 7 7 7 7 8 6
6 6 9 4 3 2 6 10 10 10 10 11 11 1 6 8 9 11 12 11 7 9 9 10 9 8 9 9 8 8 9 8 7 9 6 7 8 8 8 8 7 8 8 8 8 8 8 8 8 8 8 8 8 4 2 2 2 3 3 4 4 4 5 6 7 4 5 5 5 6 5 5 6 7 7 7 6 6 6 6 6 7 6 7 6 7 5 5 6 7 7 7 6 7 8 10 8
5 9 6 7 7 8 6 5 11 12 11 10 11 6 3 11 10 12 12 10 11 8 10 9 8 8 9 9 8 8 7 8 8 9 8 8 7 8 8 8 8 8 8 8 8 8 8 8 8 8 7 7 6 5 2 3 3 4 4 4 5 5 6 7 5 4 6 6 6 5 6 6 6 7 6 6 6 6 6 6 6 6 6 6 7 8 6 6 6 6 7 6 7 7 7 9 8
7 10 6 7 15 14 4 6 12 13 13 9 9 8 4 12 8 12 13 10 11 9 6 4 7 10 9 9 9 9 8 9 9 9 9 9 8 7 8 8 9 8 6 7 8 8 7 7 8 8 8 7 4 3 4 4 4 4 4 5 5 5 4 5 4 5 6 6 6 6 5 5 6 6 6 6 6 6 6 7 7 6 6 5 6 7 7 7 7 6 6 7 7 7 7 8 8
8 5 8 13 5 12 9 4 9 14 12 10 11 5 2 7 6 12 12 11 9 9 5 3 9 8 10 10 10 8 8 9 9 9 10 11 9 9 7 7 8 7 7 7 7 7 7 8 7 7 6 5 6 5 4 4 4 4 5 4 4 5 6 5 5 6 6 5 6 6 6 6 5 6 5 4 6 6 7 7 9 9 8 6 7 7 7 6 8 7 5 8 9 8 7 7 6
11 11 15 7 9 7 12 14 12 6 4 7 9 9 13 12 6 9 11 10 12 13 7 6 7 10 9 10 10 9 9 8 10 11 9 10 9 8 8 7 7 8 8 8 8 7 8 7 8 8 7 5 3 4 3 4 3 3 4 4 3 6 3 2 6 5 6 5 6 6 7 7 6 6 5 5 6 8 7 7 7 8 7 7 7 7 8 7 8 6 4 5 9 9 7 7 8
12 12 10 8 6 9 2 8 9 4 4 2 12 9 3 8 14 13 12 11 14 15 11 10 12 13 10 11 11 11 10 8 10 11 9 10 7 10 8 7 7 8 7 7 8 8 7 8 8 8 6 5 4 4 4 4 4 3 3 3 1 3 4 3 6 5 4 6 6 7 6 7 7 7 7 7 8 8 7 7 7 7 7 6 6 8 8 8 9 7 5 6 5 8 6 8 8
10 10 8 9 8 7 9 7 6 5 5 3 14 11 10 12 13 15 14 13 13 16 15 15 10 9 9 11 13 11 11 10 11 11 8 9 9 8 7 7 6 7 7 7 8 8 9 5 5 7 6 6 5 6 5 5 4 5 4 5 5 6 5 5 5 5 3 6 9 7 6 6 6 7 8 8 8 8 7 7 7 6 6 7 6 7 7 8 7 7 8 7 8 6 6 7 8
9 9 9 8 7 8 7 2 8 5 6 1 4 5 5 12 18 15 14 15 11 12 15 9 6 9 10 13 12 12 12 13 13 10 6 7 6 7 7 7 8 8 8 8 8 8 7 6 3 6 6 6 7 6 6 6 6 6 6 5 4 4 4 4 4 3 6 7 7 7 6 6 6 7 8 8 7 7 7 7 6 6 6 6 6 7 6 7 7 4 8 7 7 8 8 9 8
12 12 12 11 10 11 9 10 11 9 10 8 9 5 1 8 11 9 12 13 13 11 8 8 10 12 12 11 13 11 10 14 18 9 1 3 8 7 9 9 9 8 8 9 8 6 6 6 6 7 6 8 7 6 6 5 5 5 4 4 3 3 3 5 5 6 5 4 6 5 6 6 5 5 6 7 6 6 5 6 6 6 6 6 6 6 6 8 8 6 8 6 7 8 9 9 8
11 13 14 12 14 12 11 13 13 9 2 6 7 6 4 6 10 9 11 11 12 4 9 12 12 12 13 14 14 13 12 20 16 10 13 12 11 12 9 9 8 8 7 8 6 6 7 8 7 6 6 6 7 7 6 5 4 4 2 2 2 2 6 6 5 6 6 5 4 4 4 5 3 3 4 4 5 5 4 6 6 6 7 6 6 6 6 5 6 8 6 6 8 9 7 7 9
8 11 10 12 13 13 14 15 11 9 9 4 5 5 4 11 8 8 12 15 16 10 12 15 13 13 15 16 12 7 22 16 13 12 14 12 4 5 6 6 6 8 7 7 6 6 8 8 8 7 6 6 6 6 7 4 4 3 4 5 7 7 6 5 2 5 3 3 5 5 5 5 2 4 4 4 6 7 4 5 5 6 6 5 6 6 6 7 7 8 6 7 8 7 6 8 9
10 10 14 12 13 15 16 14 11 11 12 9 10 0 1 3 4 16 4 14 12 14 18 16 13 12 16 9 5 19 18 12 14 17 12 5 4 4 8 8 5 8 7 7 7 7 8 7 9 8 6 6 6 6 6 5 5 4 5 7 6 6 6 2 5 4 5 5 5 4 3 4 5 5 4 5 8 7 6 6 6 6 5 6 7 6 7 7 7 6 7 6 8 7 7 7 7
10 12 14 14 15 17 19 10 10 12 11 10 4 8 3 5 8 11 13 15 15 16 16 13 12 13 12 8 12 25 17 17 14 8 9 9 8 7 8 9 8 8 7 7 7 8 9 9 9 8 8 7 6 7 7 6 5 6 6 6 5 4 4 4 5 5 6 6 5 8 6 5 5 5 9 10 8 7 7 7 6 5 6 6 6 6 7 9 10 8 8 7 8 7 8 7 6
15 15 10 10 16 16 13 12 12 11 11 12 5 10 8 4 8 8 10 11 14 14 15 15 15 14 12 10 17 18 15 12 7 10 8 7 8 7 6 7 10 8 7 7 7 8 9 9 9 9 8 6 6 7 5 6 7 7 6 6 6 4 5 5 5 5 5 4 4 6 5 5 5 7 7 8 6 7 6 7 6 7 6 6 7 8 8 8 9 7 8 9 7 7 6 7 6
17 20 18 14 14 13 11 9 6 10 11 9 11 10 7 5 7 7 8 4 9 12 11 12 12 13 9 12 15 15 12 12 11 8 6 6 6 5 7 9 9 9 9 8 8 8 10 9 9 10 8 7 6 6 8 9 8 7 6 7 7 7 6 5 3 5 4 5 4 7 5 5 5 6 6 6 8 7 8 7 7 7 6 7 7 8 8 9 9 8 9 8 7 8 6 7 8
15 11 16 15 13 11 11 11 11 11 10 11 13 13 8 7 5 11 6 10 10 6 8 13 14 14 9 12 12 16 14 13 13 11 9 9 8 8 8 9 10 11 11 10 9 8 9 9 9 9 8 7 6 7 8 8 7 7 7 7 7 5 5 4 6 6 5 6 5 6 5 5 5 6 6 6 7 8 5 5 5 6 6 8 7 6 6 7 8 7 7 7 6 7 7 7 8
12 13 11 9 8 6 8 7 10 9 9 9 9 12 11 3 7 8 5 7 4 4 7 10 12 13 14 15 13 14 15 15 15 13 12 11 10 9 9 10 9 9 10 11 10 9 9 10 10 10 8 8 8 8 9 8 7 7 5 6 6 4 5 7 7 8 7 6 5 5 5 5 6 6 7 7 8 8 4 3 5 7 7 6 5 5 6 8 7 5 6 7 8 8 8 8 6
12 9 8 9 9 9 10 9 7 9 11 10 11 8 10 4 9 5 8 4 3 1 4 3 7 12 14 14 10 15 15 15 15 16 14 12 11 9 10 9 8 8 9 10 9 9 8 9 9 10 10 9 8 9 9 9 9 8 7 7 6 6 7 7 7 5 6 5 5 6 5 5 5 6 7 6 6 7 6 8 8 7 5 6 6 6 6 7 8 5 7 7 8 7 8 9 7
12 11 9 10 9 9 11 7 9 9 8 9 15 14 3 9 3 2 5 3 3 1 2 4 10 13 14 15 14 16 16 14 13 11 13 11 11 11 11 10 10 10 10 10 9 9 9 9 8 10 10 9 8 8 8 9 7 7 6 5 4 4 5 6 4 5 6 6 4 6 5 5 6 5 4 2 3 4 6 6 5 4 4 5 7 8 9 7 8 5 8 9 8 7 9 9 9
12 11 11 12 12 7 12 10 13 13 10 8 6 4 8 10 13 10 9 4 4 3 5 7 11 15 16 16 17 16 13 13 15 15 13 10 13 13 11 11 11 11 10 9 10 9 9 9 10 11 10 9 8 9 8 7 6 5 5 5 5 4 5 6 5 6 5 5 6 6 5 5 5 4 3 3 5 5 6 5 5 7 7 8 7 7 7 6 7 5 7 8 8 8 7 9 8
7 12 13 11 9 12 10 12 14 16 13 12 6 10 8 5 6 6 11 11 9 8 8 11 12 15 14 14 16 16 15 13 14 12 11 15 14 12 12 13 12 12 11 10 9 10 11 10 11 10 9 9 9 8 8 7 6 6 6 6 5 6 7 8 7 8 8 7 6 5 6 6 6 4 4 4 3 3 4 4 6 9 8 6 6 7 8 8 8 5 6 8 8 8 7 8 7
10 9 8 12 16 15 11 10 7 10 12 9 9 7 11 7 4 3 4 6 10 7 8 12 12 14 14 14 15 15 15 13 15 11 14 15 13 13 13 13 13 12 12 10 9 9 10 10 11 11 11 10 9 8 7 6 6 6 6 6 7 8 8 8 7 7 7 6 5 5 4 5 6 5 5 5 4 6 3 6 7 6 6 6 6 7 7 8 7 6 6 7 6 5 6 6 7
11 11 9 11 8 13 10 9 10 11 11 8 8 10 6 4 8 9 9 11 10 7 9 12 13 12 13 16 17 15 15 13 15 12 11 14 13 13 13 14 12 12 11 11 10 11 12 12 11 11 11 10 9 8 7 6 6 6 6 7 8 7 6 6 6 7 5 5 6 5 7 4 4 3 6 5 7 8 7 7 6 5 5 6 6 6 6 6 7 6 6 6 6 6 5 7 7
14 9 12 12 12 11 11 8 8 4 9 8 7 11 2 4 7 8 6 6 7 9 9 9 10 12 14 15 15 14 13 13 12 13 12 12 14 15 15 14 14 13 12 11 12 12 13 12 11 11 10 9 10 9 8 7 7 6 7 6 6 5 5 5 6 7 7 6 6 6 7 7 5 3 6 6 7 5 6 7 7 9 9 8 8 6 5 5 6 6 6 7 7 5 5 6 8
12 11 10 8 9 8 10 8 8 8 7 7 6 6 7 3 3 6 12 10 12 10 9 8 9 12 14 16 14 12 13 13 13 12 12 13 14 14 14 12 11 11 10 9 8 12 12 11 11 11 12 11 11 10 9 7 6 7 7 8 6 6 7 5 7 9 8 7 6 6 7 6 3 4 6 7 4 5 5 8 8 8 8 7 5 5 4 4 4 5 5 5 5 4 5 6 5
10 10 11 9 9 10 11 11 9 11 9 7 7 3 5 4 7 5 10 10 12 11 10 10 11 9 14 14 14 13 13 14 14 12 13 13 14 14 13 11 10 10 9 6 10 10 11 10 10 10 9 10 10 9 8 7 7 7 8 8 8 6 5 5 5 4 8 9 9 7 7 6 7 5 6 5 4 5 4 6 9 8 7 8 7 7 8 4 5 4 4 7 8 5 5 5 3
Wind_Direction
171 180 180 174 147 163 147 201 156 278 176 82 177 294 65 235 94 110 108 189 71 66 264 29 42 52 70 91 79 67 43 46 3 108 114 123 159 119 124 128 131 128 125 127 128 129 124 122 121 119 117 115 113 108 106 106 103 105 106 106 105 106 104 106 104 102 100 103 99 98 102 102 104 107 110 110 111 113 113 111 113 111 109 101 102 94 90 86 77 94 96 93 94 69 67 82 47
166 182 168 174 165 171 167 179 283 163 156 116 33 248 73 354 73 81 90 63 63 87 62 43 29 59 83 81 82 74 36 47 66 90 111 147 118 126 133 132 133 126 127 130 130 127 124 126 124 123 123 122 119 114 113 109 106 108 112 112 110 107 109 108 107 107 107 104 107 107 109 111 108 110 111 113 114 116 118 121 120 125 126 130 130 137 122 130 122 94 88 101 96 103 108 49 53
167 167 170 140 53 354 67 223 113 10 179 85 76 359 7 74 113 97 85 89 97 84 67 62 43 10 77 62 50 52 66 20 94 111 120 116 121 135 132 124 123 129 132 133 129 126 128 130 131 129 129 127 121 120 118 116 115 116 117 116 114 113 111 112 115 113 112 111 111 114 113 113 116 115 118 119 123 121 127 123 129 132 134 136 138 135 151 149 140 133 125 158 133 151 162 190 351
152 175 171 143 129 135 11 78 50 84 23 78 68 55 119 147 92 100 74 86 85 70 56 45 42 342 60 65 80 80 76 68 55 97 113 116 116 127 123 124 132 138 134 125 125 127 126 135 135 136 133 129 127 125 124 125 124 121 119 119 115 116 115 114 114 117 116 117 117 116 112 112 110 113 119 121 124 133 134 146 138 144 152 152 157 156 158 181 165 175 183 155 182 179 221 212 226
220 161 88 172 96 190 270 220 137 150 73 26 87 109 110 99 105 103 101 92 88 75 70 84 82 69 61 55 9 79 75 21 7 79 106 119 131 129 127 136 143 135 129 125 122 125 133 137 137 137 134 131 132 130 129 130 130 126 122 117 117 116 119 120 123 121 122 118 114 115 119 116 120 123 120 125 132 133 145 141 157 158 170 175 177 190 189 191 203 198 205 200 209 216 216 230 231
224 181 187 141 243 19 252 136 69 76 79 75 104 90 116 115 113 112 121 90 50 49 31 67 91 105 59 32 10 86 329 79 319 210 125 133 134 131 132 140 133 121 115 115 120 126 136 139 139 137 137 135 136 136 133 133 132 127 127 127 126 129 126 128 123 125 122 123 125 119 121 129 120 126 138 130 139 146 147 176 167 192 196 213 207 217 221 222 222 223 215 223 228 224 222 223 231
202 174 193 230 260 222 13 54 60 67 61 69 93 101 101 111 116 123 106 60 358 6 327 98 122 125 95 116 85 52 350 292 265 114 143 136 131 134 145 132 124 116 119 122 124 130 135 140 137 139 137 140 139 136 133 133 131 130 129 132 131 133 131 129 129 120 129 127 127 127 128 135 147 132 135 156 151 177 184 193 212 205 216 219 220 222 227 229 230 233 236 232 236 236 235 233 232
198 192 183 240 75 255 50 63 56 55 67 73 95 99 118 119 118 114 96 91 313 3 37 84 70 79 84 229 94 22 356 343 50 123 129 125 124 133 128 124 119 127 129 125 123 122 133 138 140 139 141 142 140 137 137 136 136 134 137 135 135 134 136 132 133 134 129 132 136 141 149 156 162 183 164 188 208 212 206 229 222 234 239 241 243 238 237 237 236 236 234 236 233 236 241 239 235
220 227 136 229 334 199 120 75 71 54 80 83 84 96 97 110 112 89 84 107 125 65 28 20 134 79 89 82 69 17 0 342 14 108 121 124 136 137 136 139 139 132 121 117 118 127 135 139 141 144 144 143 145 143 141 140 139 138 141 140 138 138 139 143 141 147 149 146 157 185 173 186 213 211 216 223 236 227 234 235 238 238 243 240 245 247 246 249 250 247 245 241 240 244 246 243 241
239 210 194 197 207 66 47 71 65 56 78 66 82 88 97 107 100 94 109 132 137 76 343 15 84 102 104 94 102 47 330 343 309 135 134 142 135 128 137 141 133 122 118 123 130 132 135 144 145 147 148 147 146 147 143 142 143 144 142 142 140 143 146 146 149 149 154 166 173 189 205 218 231 233 243 249 248 249 245 246 246 247 243 246 245 246 249 251 249 251 255 255 252 251 249 250 250
263 198 212 253 50 50 43 63 77 89 78 88 84 85 95 78 82 104 124 134 170 136 170 95 91 99 103 85 72 257 283 65 333 247 136 128 127 147 145 135 126 123 131 134 132 130 138 145 148 150 149 149 148 147 144 145 145 145 147 147 147 150 152 152 160 156 184 203 185 215 237 236 253 264 254 253 255 255 259 258 256 254 254 253 251 248 250 252 251 251 249 249 254 254 252 252 251
254 230 179 347 47 56 61 68 74 83 90 86 83 97 112 106 110 127 137 120 137 118 119 272 122 127 102 121 129 165 15 85 175 273 114 128 158 144 126 128 133 141 146 128 131 137 142 143 148 151 149 150 152 150 148 149 155 154 149 151 150 147 160 165 155 183 199 207 219 259 254 259 269 287 316 8 341 316 283 274 269 266 264 258 253 250 251 250 251 251 251 255 256 258 260 259 260
249 268 61 48 37 59 94 78 87 86 78 63 78 74 62 94 106 143 125 115 126 117 85 79 130 189 117 107 118 344 143 230 221 248 152 177 144 133 146 131 165 147 149 134 136 136 138 148 143 151 152 151 151 151 150 159 162 157 148 148 152 158 173 178 192 219 217 235 265 294 316 39 270 256 259 275 271 271 275 271 264 261 261 261 257 253 247 250 251 248 246 251 252 255 258 260 261
293 328 359 77 70 48 45 99 102 75 66 79 81 105 116 91 137 126 119 111 118 100 125 138 153 109 100 115 134 171 220 238 236 213 190 180 141 101 51 68 177 160 102 117 130 137 143 149 144 146 148 157 150 154 163 162 163 160 157 157 175 182 170 180 263 270 261 356 36 331 328 293 288 281 275 267 270 271 265 262 264 264 264 268 276 283 281 267 258 264 271 256 252 256 257 260 262
257 282 55 30 49 87 50 48 44 70 76 74 79 95 86 93 109 148 117 117 88 106 129 191 132 152 151 152 154 186 183 210 225 168 189 136 56 70 76 66 25 87 116 132 154 156 143 139 140 130 152 152 149 157 159 164 166 169 164 136 123 133 139 159 155 158 283 223 246 256 255 257 263 275 273 280 282 280 274 274 273 273 272 280 306 297 292 284 274 273 269 278 269 262 264 263 264
324 59 43 56 45 33 33 82 79 76 83 83 99 89 88 103 99 116 115 117 121 134 165 112 75 285 146 156 149 159 153 185 175 171 117 61 91 87 97 55 355 46 347 45 190 67 73 65 29 88 84 90 88 71 53 71 173 146 155 163 153 144 152 153 207 227 235 239 230 234 259 284 299 307 315 301 287 280 279 278 277 280 281 272 261 268 265 265 268 260 258 260 268 268 269 273 271
248 57 61 53 60 42 33 40 44 67 91 97 114 94 87 89 99 96 112 123 130 134 121 111 116 116 127 117 137 135 140 171 155 135 92 91 88 102 77 127 30 29 350 334 24 25 30 85 109 70 7 39 79 54 12 320 188 163 150 162 174 164 169 195 239 254 247 251 309 327 328 316 327 316 293 294 304 294 287 282 284 291 291 290 256 242 253 260 262 256 257 259 263 264 264 266 268
44 47 55 62 60 60 64 69 74 107 104 112 118 109 99 102 109 115 127 111 95 106 102 104 102 97 103 121 134 141 149 147 141 128 98 45 105 94 91 43 47 80 120 231 141 127 154 140 78 82 152 113 131 155 200 229 215 174 178 170 195 180 185 194 305 345 331 328 347 326 304 138 253 241 252 254 273 282 293 294 298 293 296 298 298 283 243 256 259 256 256 256 258 261 262 262 262
72 71 58 62 45 57 67 77 78 85 84 110 101 89 101 110 123 117 112 107 108 103 104 111 107 110 115 132 135 142 145 133 159 99 88 137 78 84 65 44 75 41 23 297 31 52 66 89 111 137 138 283 326 144 191 309 314 106 335 296 235 208 13 60 38 307 315 13 239 234 262 232 256 269 238 262 263 275 274 276 275 276 298 311 304 292 284 275 269 266 262 259 257 260 263 258 253
56 83 81 75 74 73 76 89 107 119 122 98 95 110 94 106 99 141 103 112 116 114 122 125 125 128 131 135 146 152 144 152 86 102 132 115 129 117 130 164 173 170 171 296 39 59 51 48 66 131 144 168 360 330 342 179 292 249 175 236 356 44 97 121 147 250 302 310 231 232 226 290 280 216 249 294 271 246 257 255 236 257 257 267 263 265 264 251 251 264 270 270 268 261 251 253 245
50 61 58 78 90 102 92 86 80 77 67 81 102 111 116 113 126 104 120 108 104 121 131 133 135 134 135 145 146 142 132 98 89 112 121 129 120 140 139 138 140 125 104 133 66 76 68 56 48 48 42 126 154 148 278 271 208 167 71 330 5 84 60 92 174 198 194 304 28 107 297 332 346 334 338 315 333 298 280 238 206 212 209 215 244 237 260 266 284 265 267 266 242 248 245 244 245
69 70 87 100 94 85 72 74 74 78 119 140 121 83 82 155 89 124 107 103 117 110 116 124 133 138 140 137 130 142 130 123 139 160 122 136 143 145 138 133 98 74 84 79 94 83 76 64 51 26 4 35 115 142 122 255 201 113 128 280 29 1 76 223 223 134 71 25 49 19 360 339 21 333 1 346 339 330 354 326 83 250 328 302 275 254 257 190 213 242 241 224 226 235 228 225 235
95 65 67 68 80 83 95 89 116 167 122 77 82 118 132 87 80 84 93 86 88 108 122 130 131 136 138 138 138 142 140 152 149 158 145 149 158 162 146 152 146 141 134 143 101 103 109 128 151 99 149 26 13 85 138 95 9 72 345 38 58 326 26 345 303 93 106 92 51 32 51 351 340 17 360 342 325 263 293 313 345 337 312 323 16 311 309 306 290 284 307 304 250 247 261 245 215
62 83 82 75 71 73 74 85 48 28 71 83 116 124 87 115 82 85 87 97 98 100 113 125 131 134 144 145 152 150 157 162 154 153 153 155 164 176 167 148 144 124 142 135 131 122 111 92 105 90 132 90 327 37 107 160 32 50 315 26 162 99 283 284 71 60 44 59 61 38 23 30 350 321 293 312 328 10 347 3 351 332 343 337 344 290 314 324 300 285 284 274 283 275 275 271 266
94 97 83 91 92 86 74 73 81 63 58 37 290 84 360 86 101 103 102 107 113 111 111 118 123 133 145 145 149 161 146 172 150 145 154 159 184 163 153 139 138 136 136 146 129 128 130 124 93 80 38 96 118 19 5 35 90 140 137 313 48 118 277 346 23 102 85 61 89 45 41 16 321 323 3 359 2 13 357 5 358 1 350 360 4 351 359 355 346 352 347 346 341 331 328 315 308
78 88 104 90 89 104 113 107 108 123 81 359 38 54 73 104 120 102 115 115 118 131 141 139 139 146 144 155 155 164 160 168 159 157 160 154 166 166 142 163 155 154 151 146 135 150 132 134 109 104 112 189 102 137 73 278 121 59 53 73 269 51 76 169 231 293 138 87 50 56 29 26 7 23 7 358 14 359 12 358 3 4 346 15 7 352 357 350 339 329 327 333 327 324 319 312 306
121 96 86 97 105 109 136 108 105 86 87 34 80 261 84 98 229 109 119 126 127 139 141 143 140 145 160 152 175 171 155 168 165 163 157 154 160 143 139 151 152 145 145 144 144 147 132 131 124 151 205 206 120 115 139 182 136 111 172 164 165 149 220 196 211 84 72 55 62 51 37 27 32 33 6 357 5 341 17 352 2 356 11 15 3 336 331 327 322 309 307 307 307 305 291 283 287
97 107 116 125 131 118 132 98 124 124 106 121 115 42 351 88 270 127 128 132 141 138 143 151 150 157 148 151 187 140 166 161 172 166 159 150 156 159 148 142 142 132 134 142 147 142 126 126 132 150 160 105 96 106 145 177 128 164 168 200 160 148 209 194 139 200 85 65 42 57 37 34 26 29 16 4 339 355 355 351 348 23 25 2 341 321 334 343 327 309 298 303 307 294 302 317 313
103 189 143 115 152 136 171 151 109 251 128 119 86 131 198 246 63 125 133 143 151 143 140 161 136 128 149 188 160 172 181 177 182 169 179 150 158 146 145 146 143 134 136 148 148 145 135 137 136 146 143 135 131 134 145 123 127 138 154 192 97 167 140 131 113 78 65 71 61 48 37 30 29 22 19 2 346 357 340 24 4 33 18 349 325 347 354 327 307 312 341 352 349 347 331 319 320
115 160 52 315 12 348 135 162 109 171 132 116 166 180 181 160 170 129 134 157 154 137 143 156 124 153 168 181 175 174 185 168 180 171 151 144 139 138 130 132 134 136 140 134 136 144 141 143 151 151 135 117 103 97 150 126 127 131 198 157 160 152 100 59 77 87 89 72 63 49 47 36 25 23 14 10 352 355 346 15 9 26 7 333 345 353 339 317 313 357 359 355 340 324 321 329 326
79 51 3 319 290 267 200 180 149 176 143 157 198 27 137 143 151 137 144 155 160 129 149 139 151 177 178 186 175 177 175 183 172 161 157 152 135 129 128 132 134 132 130 133 138 139 128 145 138 129 123 107 100 84 95 95 91 76 62 276 107 111 142 152 94 75 65 65 64 56 46 41 35 21 23 13 2 1 356 355 19 21 354 335 358 344 327 316 349 4 1 343 331 330 335 318 301
358 58 2 276 264 17 176 154 170 190 165 189 194 208 185 156 153 141 144 151 152 145 149 161 161 191 180 191 181 176 180 199 175 148 140 137 128 128 128 117 114 117 119 122 126 127 129 125 119 117 124 118 114 100 73 70 49 24 140 82 28 51 56 76 54 55 64 73 64 59 51 45 36 29 26 17 10 0 356 347 23 16 349 341 350 344 324 350 357 3 352 337 334 333 325 313 297
243 182 201 222 245 214 242 158 173 185 180 188 206 44 120 148 154 140 142 174 153 158 161 168 165 186 177 206 189 184 179 173 165 133 138 124 128 128 121 125 119 121 126 131 132 131 129 125 118 116 117 116 112 117 113 84 182 183 106 80 68 48 52 52 76 75 51 50 46 49 41 43 44 37 27 21 19 0 352 5 17 6 356 347 349 339 335 351 3 354 343 333 335 331 317 313 318
334 292 259 215 236 215 212 196 188 184 190 178 201 222 298 134 153 150 151 172 174 181 158 163 163 189 201 214 191 187 167 179 158 146 137 130 118 127 126 121 125 124 124 128 129 128 128 129 120 118 123 119 121 121 140 198 157 112 87 70 64 72 54 59 74 69 55 49 54 45 46 34 42 39 26 29 26 2 358 9 13 5 2 351 0 337 347 352 356 347 334 335 337 321 315 321 328
228 239 281 265 190 242 184 215 174 198 191 188 182 229 263 125 158 159 153 169 185 91 60 334 195 194 193 212 219 186 181 183 157 146 139 107 120 111 114 130 125 122 121 120 123 125 124 121 123 130 125 115 104 139 179 157 114 98 106 103 97 80 101 112 89 67 67 49 45 47 41 40 42 38 28 37 25 13 8 4 6 3 353 3 0 340 349 350 343 338 334 339 330 327 322 320 324
253 289 250 267 177 212 187 268 163 193 186 202 176 211 2 59 145 163 170 172 155 116 98 148 309 229 193 208 216 188 188 183 149 139 147 140 149 132 132 127 120 122 121 121 122 127 124 126 128 115 109 131 148 159 153 117 90 63 72 38 57 75 52 55 64 76 71 56 49 42 33 21 47 32 31 38 36 30 13 12 1 359 355 358 1 346 341 346 329 325 346 344 335 331 325 315 3
233 233 255 267 296 294 142 171 218 158 237 216 206 178 101 115 346 241 177 175 139 129 146 206 220 263 202 207 217 191 194 179 146 142 145 139 134 131 122 115 124 125 128 130 130 130 133 131 131 128 134 126 84 65 29 65 90 106 74 84 82 91 66 58 82 74 76 77 60 46 45 20 3 42 20 4 52 36 22 10 3 355 356 356 349 345 327 331 321 310 353 352 335 332 331 340 15
229 257 276 277 264 270 264 212 199 168 205 46 111 119 179 153 169 221 183 192 155 145 172 205 211 223 208 196 209 196 196 159 142 130 123 104 113 119 128 122 127 129 131 136 136 133 129 126 127 119 98 96 97 80 79 76 55 97 128 105 193 99 120 103 78 70 84 96 82 65 52 34 4 32 10 14 44 33 24 11 3 351 354 352 343 335 330 330 318 321 18 354 344 331 337 352 5
268 271 270 273 275 302 294 278 95 266 305 295 114 141 176 156 182 211 197 190 171 156 181 195 213 236 205 189 205 187 186 150 130 94 100 108 114 121 126 131 133 131 135 132 126 136 123 122 120 118 125 113 98 75 68 70 50 52 57 66 49 67 56 69 94 110 100 83 74 66 50 43 23 32 15 22 23 23 21 8 6 347 348 345 338 331 331 321 322 330 25 1 342 340 348 358 357
275 275 273 275 282 272 278 207 292 276 213 138 126 139 158 167 180 201 191 180 169 157 179 178 186 251 249 198 209 185 187 134 99 63 77 111 134 137 144 143 149 149 143 142 146 138 135 120 111 120 114 109 88 95 99 80 77 68 62 63 57 53 96 124 153 123 70 68 85 73 60 48 32 45 27 28 18 26 13 3 358 344 346 341 339 326 327 330 321 354 24 2 342 353 357 354 0
268 269 271 276 280 288 303 302 300 261 78 51 56 312 224 174 194 194 186 163 159 130 167 174 194 221 254 231 205 194 172 110 78 90 6 230 166 179 164 162 155 154 150 138 137 137 135 124 128 113 115 109 99 95 96 97 84 77 80 68 92 129 99 54 36 25 63 41 53 63 76 65 37 53 43 33 21 24 13 1 349 345 351 343 339 325 325 329 330 20 12 355 359 4 3 353 359
251 259 267 279 287 276 272 295 292 297 78 188 172 244 248 174 199 224 195 143 59 141 186 213 196 210 225 223 207 185 96 77 113 150 193 199 195 180 157 159 155 141 135 113 120 129 132 125 129 123 112 117 104 98 93 77 76 106 151 146 127 127 77 65 41 36 34 41 60 49 77 97 82 70 83 57 360 41 16 5 341 356 350 345 340 318 319 326 329 37 359 0 7 5 17 354 2
270 258 264 274 271 277 274 259 249 250 286 152 234 262 333 27 352 333 75 107 157 212 209 215 207 202 215 214 199 134 84 92 130 182 196 204 163 117 134 142 141 130 122 127 131 130 119 128 128 118 105 97 104 92 85 80 91 42 39 69 59 65 82 75 122 80 65 35 65 50 44 9 47 51 66 63 39 8 22 11 352 8 344 354 334 336 337 352 340 38 357 19 19 350 15 12 4
261 282 277 281 268 276 274 273 281 281 286 157 210 241 140 98 315 308 146 138 164 191 207 212 207 200 211 204 142 79 97 141 170 188 190 129 109 150 157 149 142 126 124 128 135 125 119 124 116 107 105 102 92 94 87 82 61 57 76 55 52 65 70 83 74 71 54 29 64 57 31 41 339 79 41 46 38 8 13 12 5 4 347 8 340 357 341 355 336 26 15 31 21 4 5 15 360
252 264 271 266 278 280 296 315 305 304 311 288 147 88 141 166 249 217 165 154 172 188 211 213 216 203 201 186 126 106 148 170 172 157 189 156 169 165 158 156 148 136 132 132 125 125 122 108 101 100 98 94 98 86 74 68 59 46 50 75 64 49 76 39 68 56 56 20 21 48 33 16 360 20 47 32 24 4 23 8 0 5 5 10 349 349 357 349 4 17 21 16 27 10 7 1 3
270 257 227 272 283 278 276 277 284 270 268 267 218 191 267 224 201 205 170 157 161 190 209 218 222 201 172 162 127 140 152 152 156 169 176 142 163 180 155 131 129 134 131 125 130 124 118 114 108 105 102 106 87 78 86 75 70 71 64 54 50 61 40 40 60 70 72 51 19 62 36 13 359 29 28 35 14 6 31 6 8 17 8 3 8 357 6 354 3 3 28 18 26 12 7 356 357
270 288 302 289 270 262 263 276 265 273 261 266 272 279 278 301 167 217 161 147 174 182 202 228 227 222 155 156 153 148 135 143 154 154 154 163 177 168 146 114 125 132 132 132 134 129 122 114 107 104 101 90 94 98 76 71 74 74 70 63 56 43 53 53 44 74 41 66 34 50 34 23 21 16 35 23 11 9 27 13 15 17 13 16 10 3 15 5 7 11 19 360 31 9 2 8 339
255 250 243 236 241 258 274 271 274 265 261 268 272 263 276 268 35 357 84 168 199 187 211 192 203 216 181 171 169 133 128 136 144 147 167 176 170 162 127 116 128 135 138 136 138 122 112 107 107 103 98 94 90 83 84 83 76 71 69 66 59 57 44 26 38 57 39 49 26 56 39 9 34 30 37 20 17 7 35 16 16 9 29 23 14 8 14 6 7 16 12 0 6 20 350 12 339
245 257 275 296 291 287 260 239 246 247 267 278 295 306 293 220 213 143 335 265 239 168 188 203 193 183 173 180 157 123 132 139 143 153 162 164 161 149 136 127 133 136 130 130 129 123 115 108 106 105 100 94 81 78 79 73 68 57 59 88 88 61 56 56 25 40 42 41 32 43 34 17 37 28 29 24 6 12 13 33 29 30 25 14 12 6 16 12 359 14 18 7 360 16 355 349 1
259 248 250 254 262 256 261 262 264 269 269 285 300 283 247 64 66 141 151 225 283 130 220 182 170 167 161 158 135 124 135 144 147 153 158 158 152 144 134 134 132 128 123 119 116 112 111 110 110 104 95 86 84 80 75 73 63 58 49 39 38 48 58 45 47 44 46 49 36 61 21 29 49 35 28 30 2 13 5 36 41 37 18 15 10 4 31 16 350 5 13 15 14 5 354 348 1
234 236 236 241 247 262 270 260 263 260 273 273 254 250 357 335 62 191 89 68 119 167 152 134 157 159 153 149 135 126 138 144 134 136 153 149 147 136 136 139 140 137 133 125 122 132 133 118 106 103 100 92 92 89 83 78 76 75 61 51 63 83 67 75 81 71 48 47 36 60 46 38 32 42 31 357 7 21 14 47 49 34 30 31 22 16 18 13 346 18 40 20 7 9 358 359 1
268 262 230 225 239 245 259 276 284 295 292 277 260 265 145 144 167 145 125 159 164 198 124 143 124 134 133 132 133 133 140 138 136 147 147 139 138 139 139 141 137 136 135 132 137 135 131 129 125 116 113 115 108 98 88 89 91 93 92 102 95 73 94 104 85 79 76 50 39 45 49 53 46 29 16 328 61 33 32 24 31 38 28 34 33 22 18 4 348 15 59 33 19 10 6 5 358
204 231 256 264 241 226 250 260 263 264 257 262 292 289 99 148 135 141 146 168 154 150 137 128 129 131 139 140 131 133 141 142 133 132 150 142 132 143 140 138 142 140 139 140 143 136 133 134 128 122 121 113 108 101 98 94 86 74 57 39 46 70 63 64 66 71 75 64 50 43 56 40 57 29 354 18 64 88 65 22 49 38 27 24 38 31 23 12 352 8 52 48 25 3 16 359 2
283 259 237 249 270 294 294 290 261 242 249 246 237 246 134 161 130 265 152 120 101 122 141 134 132 139 146 123 124 133 142 140 126 145 138 134 139 140 141 141 140 146 143 140 126 124 131 124 126 125 121 116 111 108 111 106 92 83 93 89 64 63 71 66 61 62 61 71 72 75 48 58 56 34 9 17 15 45 76 54 54 66 39 24 40 42 31 18 2 358 33 53 21 356 24 0 9
233 253 295 267 225 225 226 237 253 283 289 314 298 308 63 140 137 174 160 134 130 136 132 141 149 154 127 120 128 134 138 144 139 134 125 138 142 138 141 141 145 142 140 130 137 143 131 132 130 124 123 120 111 103 89 80 81 79 56 57 70 82 95 115 117 93 82 71 67 61 77 47 51 54 51 23 23 29 24 45 40 36 52 33 30 50 42 29 12 358 24 40 25 5 32 15 10
241 248 252 252 270 271 281 271 302 306 290 290 292 278 94 84 127 164 143 117 114 134 144 153 154 125 125 129 130 140 145 137 116 125 132 136 138 139 143 144 144 140 138 146 152 142 128 122 126 122 116 115 112 99 91 86 88 92 89 87 85 64 54 62 70 77 80 74 67 68 68 59 30 27 81 58 42 32 41 40 36 40 33 34 23 33 44 48 24 352 10 34 29 10 24 40 19
198 213 241 250 253 295 302 283 266 262 259 244 268 265 116 82 354 158 141 149 144 163 160 154 133 137 129 133 138 145 138 122 121 128 134 133 138 140 142 140 135 133 141 156 132 118 121 125 132 138 144 130 113 112 108 106 103 94 89 88 77 67 58 43 70 83 83 78 67 65 83 72 29 43 49 58 55 31 26 52 32 31 41 22 9 17 26 76 45 7 2 27 23 25 354 51 37
269 210 213 230 247 226 222 254 267 266 267 277 274 276 103 313 305 112 126 159 154 155 149 137 135 140 134 138 145 141 128 127 131 135 134 135 141 142 134 129 134 143 152 163 111 126 125 131 142 150 138 111 113 106 107 106 97 93 98 92 85 77 78 81 77 91 92 84 72 55 57 74 62 40 54 61 54 61 55 65 45 40 22 36 9 360 354 38 63 22 20 31 16 17 358 45 35